[[{"header":{"parameterUnit":"m.s-1","parameterCategory":1,"la1":30.2992,"la2":30.254,"lo1":-89.0895,"lo2":-89.0443,"dy":0.0025,"dx":0.0025,"nx":19,"ny":19,"refTime":"2026-05-12T03:00:00:Z","depth":0,"parameterNumber":2,"parameterNumberName":"U-component_of_WINDS"},"data":[0,0,0,2.1247,2.1251,2.1424,2.1425,2.1648,2.165,0,0,0,0,0,0,0,0,0,0,0,2.1192,2.1194,2.1247,2.1251,2.1424,2.1425,2.1648,2.165,0,0,0,0,0,0,0,0,0,0,0,2.1192,2.1193,2.1195,2.1252,2.1424,2.1425,2.1647,2.1517,0,0,0,0,0,0,0,0,0,0,2.1349,2.1293,2.1193,2.1195,2.1253,2.1424,2.1425,2.1511,2.1525,2.1569,0,2.1603,0,2.163,2.1664,2.1665,0,0,0,2.1255,2.1281,2.1331,2.1195,2.1254,2.1424,2.1347,2.1519,2.1535,2.1588,2.1606,2.1614,2.1633,2.1666,2.1667,2.1901,2.1902,0,0,2.1245,2.1222,2.132,2.1341,2.131,2.1342,2.1352,2.1529,2.1548,2.1607,2.162,2.1637,2.1667,2.1669,2.19,2.1901,0,0,0,2.1215,2.1215,2.1261,2.1332,2.1363,2.1346,2.1359,2.1541,2.1557,2.1622,2.164,2.1669,2.1671,2.1899,2.1901,2.1925,0,0,0,2.121,2.1198,2.1257,2.1244,2.136,2.1453,2.1367,2.1545,2.1566,2.1639,2.1669,2.1673,2.1898,2.19,2.1922,2.1941,0,0,0,2.1182,2.1195,2.1218,2.1243,2.1316,2.1451,2.1478,2.155,2.1576,2.1665,2.1674,2.1898,2.19,2.192,2.1937,2.1998,0,0,0,2.1147,2.1236,2.1218,2.1326,2.1314,2.1463,2.1477,2.1589,2.1668,2.167,2.1898,2.1901,2.1919,2.1934,2.1995,2.2046,2.2064,0,0,2.1247,2.1248,2.1313,2.1302,2.1447,2.1438,2.159,2.1685,2.1715,2.1839,2.1845,2.1923,2.1936,2.1997,2.2173,2.2188,0,0,0,2.1337,2.1384,2.1428,2.1501,2.1575,2.1642,2.1716,2.1753,2.1858,2.1772,2.1962,2.197,2.2007,2.2033,2.2045,2.208,2.1911,2.1911,2.191,2.1446,2.148,2.1592,2.1648,2.172,2.1797,2.1861,2.1923,2.1936,2.1981,2.2018,2.212,2.2149,2.2158,2.2194,2.2046,2.2046,2.2046,2.2046,2.1598,2.1671,2.1688,2.1802,2.184,2.1938,2.2019,2.2026,2.2125,2.2094,2.2128,2.2092,2.2173,2.2207,2.2049,2.2048,2.2048,2.2048,2.2048,2.1674,2.1715,2.1757,2.1871,2.1955,2.201,2.2106,2.2137,2.2167,2.22,2.2245,2.2245,2.2251,2.2219,2.222,2.222,2.222,2.2221,2.2221,2.1737,2.1784,2.1859,2.1948,2.2002,2.2077,2.2159,2.2214,2.2284,2.23,2.23,2.2312,2.2173,2.2139,2.2227,2.2226,2.2225,2.2224,2.2224,2.1881,2.1854,2.1969,2.2024,2.2134,2.2218,2.2257,2.2368,2.2419,2.2466,2.2471,2.2363,2.2367,2.2357,2.2329,2.2461,2.2461,2.2461,2.2461,2.1946,2.1951,2.2079,2.2164,2.2251,2.2299,2.2435,2.2502,2.2568,2.2603,2.2588,2.2554,2.2542,2.2553,2.2539,2.2514,2.2689,2.269,2.269,2.2038,2.2053,2.216,2.2222,2.2312,2.239,2.252,2.2621,2.269,2.27,2.2632,2.2622,2.2566,2.2546,2.2553,2.2531,2.2485,0,0]},{"header":{"parameterUnit":"m.s-1","parameterCategory":1,"la1":30.2992,"la2":30.254,"lo1":-89.0895,"lo2":-89.0443,"dy":0.0025,"dx":0.0025,"nx":19,"ny":19,"refTime":"2026-05-12T03:00:00:Z","depth":0,"parameterNumber":3,"parameterNumberName":"V-component_of_WINDS"},"data":[0,0,0,0.0404,0.0406,0.0493,0.0493,0.0637,0.0639,0,0,0,0,0,0,0,0,0,0,0,0.0398,0.04,0.0403,0.0406,0.0493,0.0493,0.0637,0.0639,0,0,0,0,0,0,0,0,0,0,0,0.0397,0.0399,0.0401,0.0406,0.0493,0.0493,0.0637,0.0559,0,0,0,0,0,0,0,0,0,0,0.0469,0.0484,0.0399,0.0401,0.0407,0.0493,0.0493,0.0555,0.0564,0.0612,0,0.066,0,0.0652,0.065,0.0651,0,0,0,0.0391,0.0477,0.0481,0.0402,0.0408,0.0493,0.045,0.056,0.057,0.0624,0.0661,0.0666,0.0654,0.0652,0.0652,0.0974,0.0976,0,0,0.0387,0.0425,0.0474,0.0489,0.0478,0.0447,0.0452,0.0565,0.0609,0.0662,0.0669,0.0656,0.0653,0.0654,0.0972,0.0974,0,0,0,0.0383,0.0423,0.0423,0.0484,0.0497,0.045,0.0456,0.0604,0.0601,0.067,0.0658,0.0654,0.0656,0.0969,0.0973,0.1117,0,0,0,0.0379,0.042,0.0422,0.0447,0.0496,0.0552,0.0493,0.0593,0.0605,0.0657,0.0654,0.0658,0.0967,0.0971,0.1107,0.1179,0,0,0,0.0386,0.042,0.044,0.0449,0.0487,0.0549,0.0552,0.0595,0.0598,0.0651,0.0658,0.0965,0.097,0.1099,0.1165,0.1273,0,0,0,0.0404,0.057,0.0443,0.0623,0.0487,0.0637,0.0551,0.0662,0.0724,0.0655,0.0967,0.0972,0.1097,0.1157,0.1264,0.137,0.1418,0,0,0.0635,0.0599,0.0701,0.059,0.0773,0.0621,0.0824,0.0847,0.0818,0.0923,0.0931,0.111,0.1164,0.1271,0.1673,0.1711,0,0,0,0.0787,0.0862,0.0901,0.0961,0.098,0.1002,0.0988,0.0995,0.1082,0.088,0.1177,0.1208,0.1269,0.1318,0.1351,0.1399,0.0997,0.0996,0.0995,0.1172,0.1121,0.1286,0.1246,0.1306,0.1287,0.133,0.1336,0.1273,0.1343,0.1375,0.1624,0.1683,0.1707,0.1758,0.1427,0.1427,0.1428,0.1428,0.1504,0.16,0.1505,0.1631,0.1577,0.1683,0.167,0.162,0.171,0.1598,0.1649,0.153,0.175,0.1792,0.1438,0.1437,0.1435,0.1434,0.1434,0.175,0.1787,0.179,0.1868,0.1934,0.1887,0.1976,0.1924,0.1877,0.1927,0.1953,0.195,0.194,0.1943,0.1944,0.1945,0.1945,0.1946,0.1947,0.2003,0.2002,0.2083,0.2113,0.2141,0.2173,0.2152,0.218,0.2197,0.2152,0.2152,0.2079,0.1781,0.1706,0.196,0.1957,0.1956,0.1954,0.1954,0.2359,0.2269,0.2394,0.2423,0.245,0.2517,0.2448,0.2507,0.2522,0.2567,0.2482,0.2269,0.223,0.2204,0.2142,0.2493,0.2493,0.2493,0.2493,0.2566,0.2539,0.2652,0.2701,0.2742,0.2691,0.2832,0.2816,0.2786,0.2791,0.2732,0.2646,0.2621,0.2596,0.2561,0.2503,0.2938,0.2938,0.2938,0.2781,0.2755,0.2885,0.2851,0.2868,0.2883,0.3013,0.3072,0.3019,0.2955,0.2794,0.2775,0.2634,0.2591,0.2526,0.2473,0.2364,0,0]}]]